Flag for Ukraine Weather past 2 weeks in Odesa, Ukraine

Now
52 °F

Fog.


Feels Like: 52 °F
Forecast: 53 / 65 °F
Wind: 1 mph from North

Location: Odesa Airport

Current Time: Oct 22, 2014 at 9:57:28 AM

Latest Report: Oct 22, 2014 at 9:30 AM


Visibility: 3 mi

Pressure: 29.77 "Hg

Humidity: 100%

Dew point: 52 °F

Location of OdesaLocation

Historic Weather in Odesa — Graph

°F

Odesa temperature yesterday

Maximum temperature yesterday: 63 °F (at 2:30 PM)
Minimum temperature yesterday: 46 °F (at 7:30 AM)
Average temperature yesterday: 54 °F

Past Weeks' High & Low Weather Summary

 TemperatureHumidityPressure
High73 °F (Oct 17, 2:30 PM)100% (Oct 10, 11:30 PM)30.42 "Hg (Oct 10, 11:30 PM)
Low32 °F (Oct 19, 5:00 AM)27% (Oct 13, 4:00 PM)29.71 "Hg (Oct 16, 6:30 AM)
Average54 °F75%30.07 "Hg
* Reported Oct 7 9:00 AM — Oct 22 9:00 AM, Odesa, Weather by CustomWeather, © 2014

Note: Actual official high and low records may vary slightly from our data, if they occured in-between our weather recording intervals... More about our weather records

Advertising

Odesa weather history for previous 24 hours

 ConditionsComfort  
Time TempWeatherWind HumidityBarometerVisibility
9:00 AM
Oct 22
52 °FFog.1 mph94%29.77 "Hg2 mi
8:30 AM50 °FFog.3 mph100%29.77 "Hg1 mi
8:00 AM48 °FFog.No wind100%29.77 "Hg0 mi
7:30 AM50 °FFog.No wind94%29.77 "Hg0 mi
7:00 AM50 °FFog.No wind100%29.77 "Hg0 mi
6:53 AM50 °FFog.No wind100%29.77 "Hg0 mi
6:30 AM50 °FFog.No wind100%29.77 "Hg0 mi
6:00 AM50 °FFog.No wind100%29.77 "Hg0 mi
5:57 AM50 °FFog.No wind100%29.77 "Hg0 mi
5:30 AM50 °FFog.No wind100%29.77 "Hg0 mi
5:00 AM50 °FPassing clouds.No wind100%29.77 "Hg1 mi
4:46 AM52 °FFog.3 mph94%29.77 "Hg1 mi
4:30 AM52 °FFog.3 mph94%29.77 "Hg0 mi
4:00 AM52 °FMostly cloudy.No wind94%29.77 "Hg1 mi
3:30 AM52 °FFog.No wind100%29.77 "Hg1 mi
3:00 AM52 °FFog.No wind94%29.77 "Hg1 mi
2:30 AM52 °FFog.3 mph94%29.77 "Hg1 mi
2:00 AM52 °FPassing clouds.No wind94%29.77 "Hg0 mi
1:30 AM52 °FFog.No wind94%29.77 "Hg0 mi
1:00 AM52 °FFog.No wind94%29.80 "Hg1 mi
12:30 AM52 °FSprinkles. Fog.1 mph94%29.80 "Hg2 mi
12:00 AM52 °FSprinkles. Fog.No wind94%29.80 "Hg1 mi
11:30 PM
Oct 21
52 °FSprinkles. Fog.No wind94%29.80 "Hg1 mi
11:00 PM52 °FSprinkles. Fog.No wind94%29.80 "Hg2 mi
10:30 PM52 °FRain showers. Fog.No wind94%29.80 "Hg1 mi
10:00 PM54 °FSprinkles. Fog.No wind88%29.80 "Hg2 mi
9:30 PM54 °FSprinkles. Fog.3 mph88%29.83 "Hg2 mi
9:00 PM54 °FSprinkles. Mostly cloudy.6 mph94%29.83 "HgN/A
8:55 PM54 °FSprinkles. Mostly cloudy.3 mph94%29.83 "HgN/A
8:30 PM55 °FOvercast.6 mph88%29.80 "HgN/A
8:00 PM55 °FOvercast.6 mph88%29.80 "HgN/A
7:30 PM55 °FSprinkles. Overcast.6 mph88%29.83 "HgN/A
7:00 PM55 °FMostly cloudy.3 mph88%29.80 "HgN/A
6:30 PM55 °FPartly sunny.1 mph88%29.80 "HgN/A
6:00 PM55 °FBroken clouds.6 mph88%29.80 "HgN/A
5:30 PM57 °FBroken clouds.No wind82%29.80 "HgN/A
5:00 PM57 °FBroken clouds.3 mph82%29.80 "HgN/A
4:30 PM57 °FBroken clouds.3 mph82%29.80 "HgN/A
4:00 PM57 °FBroken clouds.8 mph82%29.80 "HgN/A
3:30 PM59 °FBroken clouds.8 mph72%29.80 "HgN/A
3:00 PM61 °FBroken clouds.8 mph68%29.80 "HgN/A
2:30 PM63 °FBroken clouds.6 mph59%29.83 "HgN/A
2:00 PM61 °FMore clouds than sun.8 mph63%29.83 "HgN/A
1:30 PM61 °FMore clouds than sun.8 mph68%29.83 "HgN/A
1:00 PM61 °FMostly cloudy.3 mph68%29.86 "HgN/A
12:30 PM61 °FMostly cloudy.6 mph63%29.86 "HgN/A
12:00 PM61 °FMostly cloudy.3 mph68%29.86 "HgN/A
11:30 AM59 °FMostly cloudy.1 mph72%29.86 "HgN/A
11:00 AM59 °FSunny.No wind68%29.86 "Hg10 mi
10:30 AM59 °FSunny.No wind68%29.86 "Hg10 mi
10:00 AM55 °FSunny.1 mph77%29.86 "Hg10 mi
9:30 AM54 °FSunny.No wind82%29.86 "Hg10 mi
9:00 AM52 °FSunny.No wind82%29.86 "Hg10 mi
Weather by CustomWeather, © 2014

See weather overviewHow to use our weather pages